Flag for Canada Weather past 2 weeks in Greater Sudbury, Ontario, Canada

Now
-9 °F

Passing clouds.


Feels Like: -28 °F
Forecast: -13 / 1 °F
Wind: 10 mph from Northeast

Location: Sudbury

Current Time: Feb 1, 2015 at 7:44:17 PM

Latest Report: Feb 1, 2015 at 7:00 PM


Visibility: 15 mi

Pressure: 30.29 "Hg

Humidity: 64%

Dew point: -18 °F

Location of Greater SudburyLocation

Historic Weather in Greater Sudbury — Graph

°F

Greater Sudbury temperature yesterday

Maximum temperature yesterday: 18 °F (at 5:00 PM)
Minimum temperature yesterday: -9 °F (at 7:00 AM)
Average temperature yesterday: 2 °F

Past Weeks' High & Low Weather Summary

 TemperatureHumidityPressure
High34 °F (Jan 18, 9:00 AM)100% (Jan 18, 1:00 AM)30.47 "Hg (Jan 18, 1:00 AM)
Low-22 °F (Feb 1, 8:00 AM)40% (Jan 27, 2:00 PM)29.36 "Hg (Jan 24, 2:51 PM)
Average7 °F74%30.05 "Hg
* Reported Jan 17 6:00 PM — Feb 1 6:00 PM, Greater Sudbury, Weather by CustomWeather, © 2014

Note: Actual official high and low records may vary slightly from our data, if they occured in-between our weather recording intervals... More about our weather records

Advertising

Greater Sudbury weather history for previous 24 hours

 ConditionsComfort  
Time TempWeatherWind HumidityBarometerVisibility
6:00 PM
Feb 1
-9 °FPassing clouds.12 mph64%30.31 "Hg20 mi
5:00 PM-8 °FOvercast.10 mph58%30.34 "Hg20 mi
4:00 PM-8 °FOvercast.8 mph58%30.35 "Hg20 mi
3:00 PM-8 °FOvercast.9 mph53%30.36 "Hg20 mi
2:00 PM-9 °FOvercast.6 mph53%30.37 "Hg20 mi
1:00 PM-13 °FPartly sunny.9 mph57%30.40 "Hg20 mi
12:00 PM-15 °FPartly sunny.10 mph57%30.43 "Hg20 mi
11:00 AM-17 °FPartly sunny.12 mph57%30.45 "Hg20 mi
10:00 AM-18 °FPartly sunny.13 mph62%30.46 "Hg20 mi
9:00 AM-20 °FPartly sunny.8 mph68%30.47 "Hg20 mi
8:00 AM-22 °FPartly sunny.7 mph68%30.47 "Hg20 mi
7:00 AM-20 °FPassing clouds.9 mph68%30.45 "Hg20 mi
6:00 AM-18 °FClear.12 mph62%30.43 "Hg15 mi
5:00 AM-18 °FClear.14 mph69%30.41 "Hg15 mi
4:00 AM-17 °FClear.9 mph69%30.40 "Hg15 mi
3:00 AM-13 °FLow level haze.16 mph63%30.38 "Hg15 mi
2:00 AM-9 °FLow level haze.12 mph70%30.36 "Hg15 mi
1:00 AM-8 °FLow level haze.12 mph64%30.34 "Hg15 mi
12:00 AM-6 °FLow level haze.13 mph70%30.33 "Hg15 mi
11:00 PM
Jan 31
-2 °FLow level haze.15 mph71%30.30 "Hg15 mi
10:00 PM0 °FLight snow. Low level haze.18 mph71%30.28 "Hg15 mi
9:00 PM3 °FLight snow. Partly cloudy.17 mph72%30.26 "Hg15 mi
8:00 PM9 °FLight snow. Mostly cloudy.20 mph78%30.22 "Hg10 mi
7:00 PM12 °FLight snow. Mostly cloudy.7 mph92%30.16 "Hg4 mi
Weather by CustomWeather, © 2014

See weather overviewHow to use our weather pages